Home   Weather   Atascadero   Past weeks

Flag for USA Past Weather in Atascadero, California, USA — Yesterday and Last 2 Weeks

Now
31 °F

Ice fog.


Feels Like: 31 °F
Forecast: 37 / 55 °F
Wind: No wind

Location: Paso Robles Municipal Airport

Current Time: Dec 7, 2016 at 6:26:50 am

Latest Report: Dec 7, 2016 at 5:53 am


Visibility: 3 mi

Pressure: 30.14 "Hg

Humidity: 100%

Dew Point: 31 °F

Location of AtascaderoLocation

Past Weather in Atascadero — Graph

°F

Atascadero Temperature Yesterday

Maximum temperature yesterday: 56 °F (at 1:53 pm)
Minimum temperature yesterday: 34 °F (at 11:53 pm)
Average temperature yesterday: 46 °F

High & Low Weather Summary for the Past Weeks

 TemperatureHumidityPressure
High64 °F (Dec 4, 2:53 pm)100% (Nov 22, 4:01 am)30.33 "Hg (Nov 22, 4:01 am)
Low30 °F (Dec 2, 6:53 am)32% (Dec 3, 12:53 pm)29.91 "Hg (Nov 26, 12:53 pm)
Average46 °F81%30.10 "Hg
* Reported Nov 22 4:01 am — Dec 7 4:53 am, Atascadero, Weather by CustomWeather, © 2016

Note: Actual official high and low records may vary slightly from our data, if they occured in-between our weather recording intervals... More about our weather records

Advertising

Atascadero Weather History for the Previous 24 Hours

Scroll right to see more
 ConditionsComfort  
Time TempWeatherWind HumidityBarometerVisibility
4:53 am
Wed, Dec 7
33 °FFog.No wind96%30.13 "Hg5 mi
3:53 am33 °FPassing clouds.No wind100%30.12 "Hg8 mi
2:53 am34 °FClear.No wind92%30.13 "Hg8 mi
1:53 am36 °FFog.No wind92%30.13 "Hg6 mi
12:53 am37 °FFog.No wind96%30.12 "Hg4 mi
11:53 pm
Tue, Dec 6
34 °FFog.No wind100%30.12 "Hg3 mi
10:53 pm41 °FClear.5 mph82%30.11 "Hg10 mi
9:53 pm42 °FClear.6 mph79%30.09 "Hg10 mi
8:53 pm43 °FClear.3 mph76%30.08 "Hg10 mi
7:53 pm46 °FClear.3 mph71%30.07 "Hg10 mi
6:53 pm45 °FClear.No wind76%30.06 "Hg10 mi
5:53 pm49 °FClear.6 mph66%30.05 "Hg10 mi
4:53 pm52 °FClear.No wind64%30.03 "Hg10 mi
3:53 pm56 °FSunny.6 mph53%30.02 "Hg10 mi
2:53 pm56 °FSunny.No wind51%30.01 "Hg10 mi
1:53 pm56 °FSunny.6 mph49%30.01 "Hg10 mi
12:53 pm55 °FSunny.5 mph57%30.03 "Hg10 mi
11:53 am52 °FSunny.No wind66%30.06 "Hg10 mi
10:53 am50 °FSunny.3 mph77%30.09 "Hg10 mi
9:53 am48 °FOvercast.5 mph86%30.09 "Hg10 mi
8:53 am45 °FFog.3 mph97%30.07 "Hg5 mi
7:53 am44 °FFog.No wind96%30.05 "Hg3 mi
6:53 am43 °FFog.3 mph100%30.03 "Hg3 mi
Weather by CustomWeather, © 2016

See weather overviewHow to use our weather pages